COSMOS 336

Satellite information

Favourite Embed

Satellite Type and Status

PAYLOADIN ORBIT

Key statistics

Satellite COSMOS 336 at a glance.

Uptime

20226

Days in orbit

Revolutions

≈ 12.5

Per day

Orbit

LEO

Low Earth Orbit

Inclination

74.0

Latest

Satellite identification and parameters

Extended collection of information and parameters for COSMOS 336.

Object identification

Identified? True

Debris? False

Object name: COSMOS 336

International designator: 1970-036A

Object number (NORAD): 4383

Object ID (CCSDS): 4383

Country: COMMONWEALTH OF INDEPENDENT STATES (CIS)

Current information (Y/N): Y

RCS size: MEDIUM

Orbital parameters

Period: 115.416 minutes

Inclination: 74.0327 deg

SMA: 7852.446 km

Apoapsis: 1485.744 km

Periapsis: 1462.879 km

RAAN: 6.9199 deg

Eccentricy: 0.0014559

Argument of periapsis: 200.2131 deg

Mean anomaly: 232.6496 deg

Mean motion: 12.47657291 rev/day

Mean motion (dot): -0.00000015 rev/day2

B* drag term: 0.00000228063 1/REarth

Two-line elements (TLE)

Creation date: Sept. 8, 2025, 6:18 p.m.

Reference frame: TEME

Reference center: EARTH

Epoch: Sept. 8, 2025, 10:54 a.m. UTC

TLE line 0: 0 COSMOS 336

TLE line 1: 1 04383U 70036A 25251.45421817 -.00000015 00000-0 22806-5 0 9991

TLE line 2: 2 04383 74.0327 6.9199 0014559 200.2131 232.6496 12.47657291521756

Live tracking on map

Real-time ground track for satellite COSMOS 336.

In-orbit conjunctions

A list of the most updated potential collisions computed for object COSMOS 336.

Target Orbit TCA Probability of collision Miss distance Type
DELTA 1 DEB LEO 2025-01-16 16:19:02 0.0001059409 426.0 (m) DEBRIS

Associated space launch

Military communications satellites

COSMOS 336 was lifted into orbit during the mission ‘Kosmos-3M | Strela-1M 1-8’, on board a Kosmos-3M space rocket.

The launch took place on April 25, 1970, 5:09 p.m. from 132/2.

For more information about the launch, click the button.

Launch to space Kosmos-3M | Strela-1M 1-8
Kosmos-3M | Strela-1M 1-8

Agency: N/A

Status: Launch Successful

Launch date: April 25, 1970, 5:09 p.m. UTC

Rocket: Kosmos-3M

Launch pad: 132/2

Location: Plesetsk Cosmodrome, Russian Federation

...

Latest news about this satellite

There are no fresh news available about this satellite. Check back as we update our databases every day.


Newsletter sign-up

Weekly statistics, charts and insights to help you stay on top of the space industry.